�N����,����,�~����,�C��,���x,�C��,����,���ϕ���,�ő�u�ԕ���,�ő厞����,���˗�,�I�_���x,�n�����x,�ő啗���N��,DTYPE
"18/07/09","00:10",0.0,24.2,89.9,1010.4,298.0,0.6,1.0,320.5,0.00,22.5,24.7,"00:01:12",1
"18/07/09","00:20",0.0,24.1,90.5,1010.4,285.6,0.3,0.6,314.1,0.00,22.5,24.5,"00:13:12",1
"18/07/09","00:30",0.0,24.0,90.6,1010.2,285.0,0.6,1.1,293.8,0.00,22.4,24.5,"00:24:00",1
"18/07/09","00:40",0.0,24.0,90.9,1010.2,291.0,0.5,1.1,296.8,0.00,22.5,24.5,"00:39:36",1
"18/07/09","00:50",0.0,24.1,91.0,1010.2,327.9,0.8,1.3,302.2,0.00,22.6,24.6,"00:43:28",1
"18/07/09","01:00",0.0,24.1,91.1,1010.2,326.3,0.7,1.1,320.9,0.00,22.6,24.3,"00:50:40",1
"18/07/09","01:10",0.0,24.0,91.2,1010.7,299.2,0.7,1.1,313.2,0.00,22.5,24.4,"01:03:44",1
"18/07/09","01:20",0.0,23.9,91.5,1010.4,302.1,0.7,1.2,315.1,0.00,22.5,24.4,"01:11:04",1
"18/07/09","01:30",0.0,23.9,91.8,1010.4,313.6,0.6,1.1,321.7,0.00,22.5,24.3,"01:27:36",1
"18/07/09","01:40",0.0,23.8,91.8,1010.2,295.2,0.8,1.3,316.0,0.00,22.4,24.2,"01:31:20",1
"18/07/09","01:50",0.0,23.7,92.2,1010.7,297.6,0.7,1.2,320.6,0.00,22.4,24.2,"01:41:52",1
"18/07/09","02:00",0.0,23.6,92.2,1010.4,306.9,0.8,1.4,314.7,0.00,22.3,24.3,"01:58:32",1
"18/07/09","02:10",0.0,23.7,92.5,1010.4,330.2,1.0,1.6,323.7,0.00,22.5,24.3,"02:01:12",1
"18/07/09","02:20",0.0,23.6,92.6,1010.4,312.5,1.0,1.4,312.6,0.00,22.4,24.2,"02:13:44",1
"18/07/09","02:30",0.0,23.5,92.7,1010.7,297.4,0.7,1.6,322.4,0.00,22.3,24.2,"02:27:20",1
"18/07/09","02:40",0.0,23.4,93.0,1010.4,280.5,0.6,1.0,320.8,0.00,22.2,24.1,"02:30:32",1
"18/07/09","02:50",0.0,23.3,92.9,1010.4,317.7,1.1,1.3,317.7,0.00,22.1,24.1,"02:47:20",1
"18/07/09","03:00",0.0,23.3,93.3,1010.4,302.7,1.0,1.2,312.9,0.00,22.2,24.3,"02:54:32",1
"18/07/09","03:10",0.0,23.2,93.2,1010.2,319.2,0.8,1.2,334.4,0.00,22.1,24.0,"03:04:40",1
"18/07/09","03:20",0.0,23.2,93.6,1010.4,306.0,1.1,1.6,320.8,0.00,22.2,24.0,"03:16:00",1
"18/07/09","03:30",0.0,23.1,93.6,1010.9,302.5,1.1,1.8,308.0,0.00,22.1,23.9,"03:28:32",1
"18/07/09","03:40",0.0,23.0,93.4,1010.7,323.1,0.7,1.6,326.0,0.00,21.9,24.1,"03:31:12",1
"18/07/09","03:50",0.0,22.8,93.5,1010.7,309.4,1.1,1.9,319.1,0.00,21.7,23.9,"03:40:32",1
"18/07/09","04:00",0.0,22.7,94.2,1010.4,306.3,1.1,1.6,325.0,0.00,21.8,23.9,"03:50:32",1
"18/07/09","04:10",0.0,22.5,93.8,1010.9,309.5,1.2,1.7,318.3,0.00,21.5,23.8,"04:08:00",1
"18/07/09","04:20",0.0,22.5,94.3,1010.7,315.6,0.8,1.8,324.6,0.00,21.6,24.1,"04:13:12",1
"18/07/09","04:30",0.0,22.3,94.4,1010.7,299.0,0.8,1.3,312.1,0.00,21.4,23.8,"04:21:36",1
"18/07/09","04:40",0.0,22.2,94.6,1011.2,309.1,1.2,1.6,314.9,0.00,21.3,23.7,"04:36:08",1
"18/07/09","04:50",0.0,22.0,94.3,1010.9,314.7,1.2,1.7,317.9,0.00,21.1,23.7,"04:41:36",1
"18/07/09","05:00",0.0,21.8,94.6,1011.2,314.3,1.1,1.6,319.8,0.00,20.9,23.7,"04:52:56",1
"18/07/09","05:10",0.0,21.7,95.1,1011.2,302.5,1.0,1.7,321.6,0.00,20.9,23.8,"05:09:52",1
"18/07/09","05:20",0.0,21.8,95.4,1011.2,315.2,1.2,1.6,317.2,0.00,21.1,23.8,"05:10:16",1
"18/07/09","05:30",0.0,21.8,95.3,1011.2,306.2,1.2,1.4,312.1,0.00,21.1,23.7,"05:21:12",1
"18/07/09","05:40",0.0,21.8,95.4,1011.4,314.3,1.1,1.7,330.6,0.00,21.1,23.7,"05:33:20",1
"18/07/09","05:50",0.0,21.9,95.6,1011.2,300.9,1.0,1.2,313.0,0.00,21.2,23.7,"05:45:36",1
"18/07/09","06:00",0.0,22.1,95.7,1011.4,308.7,0.8,1.3,308.0,0.00,21.4,23.4,"05:58:56",1
"18/07/09","06:10",0.0,22.7,95.6,1011.6,354.6,0.3,1.6,326.2,0.01,22.0,23.6,"06:00:08",1
"18/07/09","06:20",0.0,23.4,94.7,1011.4,1.6,0.3,1.0,325.6,0.02,22.5,23.6,"06:16:48",1
"18/07/09","06:30",0.0,24.3,93.5,1011.4,353.4,0.6,1.1,352.9,0.03,23.2,23.7,"06:26:40",1
"18/07/09","06:40",0.0,24.9,92.1,1011.4,9.4,0.5,1.0,336.3,0.05,23.6,23.4,"06:31:28",1
"18/07/09","06:50",0.0,25.5,90.8,1011.6,49.3,0.2,0.8,17.2,0.07,23.9,23.5,"06:40:16",1
"18/07/09","07:00",0.0,26.2,88.5,1011.6,70.5,0.1,0.6,111.5,0.09,24.2,23.7,"06:50:40",1
"18/07/09","07:10",0.0,26.9,82.0,1011.6,108.5,0.1,0.6,119.6,0.11,23.6,23.6,"07:08:16",1
"18/07/09","07:20",0.0,27.6,78.0,1011.2,75.7,0.2,0.8,81.1,0.14,23.5,23.7,"07:14:48",1
"18/07/09","07:30",0.0,28.0,77.6,1011.4,26.9,0.5,1.2,18.9,0.16,23.8,23.6,"07:27:52",1
"18/07/09","07:40",0.0,27.7,75.8,1011.6,71.6,0.7,1.2,117.1,0.19,23.1,23.6,"07:39:36",1
"18/07/09","07:50",0.0,28.0,75.0,1011.9,117.3,0.5,1.8,163.7,0.21,23.2,23.7,"07:49:28",1
"18/07/09","08:00",0.0,28.3,76.6,1011.9,129.7,0.8,2.0,121.6,0.19,23.8,23.8,"07:56:08",1
"18/07/09","08:10",0.0,28.9,73.6,1012.3,154.5,0.7,2.0,197.2,0.28,23.7,23.9,"08:02:48",1
"18/07/09","08:20",0.0,28.9,74.1,1012.3,132.3,1.1,2.1,152.5,0.30,23.9,23.9,"08:16:00",1
"18/07/09","08:30",0.0,28.7,72.8,1012.8,138.8,1.2,2.4,194.1,0.31,23.4,23.7,"08:25:04",1
"18/07/09","08:40",0.0,28.4,71.8,1012.1,121.8,1.1,2.7,173.6,0.25,22.9,24.2,"08:38:08",1
"18/07/09","08:50",0.0,29.5,70.2,1012.3,124.0,1.0,2.9,121.8,0.39,23.5,24.2,"08:46:48",1
"18/07/09","09:00",0.0,30.1,72.2,1012.6,135.3,1.0,2.4,124.9,0.43,24.6,24.3,"08:54:32",1
"18/07/09","09:10",0.0,28.5,73.1,1013.0,129.8,1.2,2.6,118.7,0.19,23.3,24.4,"09:08:48",1
"18/07/09","09:20",0.0,29.1,70.5,1012.6,128.3,1.6,3.3,39.2,0.31,23.2,24.7,"09:19:28",1
"18/07/09","09:30",0.0,30.1,69.1,1012.3,102.6,1.1,2.5,130.0,0.42,23.8,24.6,"09:28:00",1
"18/07/09","09:40",0.0,30.9,69.0,1012.6,98.2,1.2,3.1,55.1,0.50,24.6,24.7,"09:35:36",1
"18/07/09","09:50",0.0,29.9,69.2,1013.0,112.3,1.2,2.6,132.2,0.39,23.7,24.8,"09:42:24",1
"18/07/09","10:00",0.0,31.0,68.8,1012.8,90.8,1.0,2.6,100.0,0.42,24.6,25.0,"09:55:36",1
"18/07/09","10:10",0.0,30.2,65.1,1013.0,142.0,1.2,2.6,127.7,0.47,23.0,25.2,"10:03:28",1
"18/07/09","10:20",0.0,31.0,67.0,1013.3,113.8,0.5,2.0,136.5,0.39,24.2,25.2,"10:19:12",1
"18/07/09","10:30",0.0,30.8,67.9,1013.3,130.9,0.8,2.1,117.0,0.38,24.2,25.4,"10:24:16",1
"18/07/09","10:40",0.0,30.3,66.5,1013.0,155.4,1.3,3.1,206.7,0.35,23.4,25.6,"10:38:24",1
"18/07/09","10:50",0.0,30.3,70.4,1013.0,138.9,0.8,2.0,117.7,0.29,24.3,25.5,"10:44:24",1
"18/07/09","11:00",0.0,31.7,63.6,1013.3,123.6,1.2,3.5,143.4,0.58,24.0,25.8,"10:54:00",1
"18/07/09","11:10",0.0,31.8,61.3,1013.0,42.2,0.6,1.4,2.0,0.45,23.5,26.0,"11:02:16",1
"18/07/09","11:20",0.0,32.0,59.3,1013.0,55.4,1.0,2.5,72.7,0.53,23.1,26.0,"11:16:08",1
"18/07/09","11:30",0.0,30.8,64.6,1013.0,155.6,0.7,2.2,187.2,0.19,23.4,26.3,"11:22:24",1
"18/07/09","11:40",0.0,31.4,63.7,1012.8,32.5,0.8,1.9,345.9,0.25,23.7,26.3,"11:30:56",1
"18/07/09","11:50",0.0,31.4,62.7,1012.6,117.4,0.7,2.1,144.5,0.39,23.5,26.3,"11:40:32",1
"18/07/09","12:00",0.0,32.8,60.9,1012.8,59.7,0.7,1.8,45.5,0.54,24.3,26.4,"11:57:36",1
"18/07/09","12:10",0.0,31.7,60.4,1012.8,32.7,0.8,2.7,48.2,0.41,23.1,26.7,"12:01:52",1
"18/07/09","12:20",0.0,31.3,63.2,1012.6,137.0,1.0,1.9,181.5,0.20,23.5,26.7,"12:14:00",1
"18/07/09","12:30",0.0,31.3,63.2,1012.3,100.0,1.1,2.5,107.1,0.20,23.5,26.5,"12:20:48",1
"18/07/09","12:40",0.0,31.7,63.3,1011.9,107.3,0.7,2.2,124.1,0.22,23.9,26.9,"12:38:00",1
"18/07/09","12:50",0.0,32.8,60.8,1011.6,168.5,0.8,2.5,202.2,0.37,24.3,27.0,"12:46:08",1
"18/07/09","13:00",0.0,32.5,58.7,1012.3,138.4,1.2,3.5,123.0,0.52,23.4,26.9,"12:58:16",1
"18/07/09","13:10",0.0,31.7,63.6,1011.9,149.1,1.8,4.2,191.6,0.35,24.0,27.1,"13:03:12",1
"18/07/09","13:20",0.0,32.4,61.7,1011.9,108.2,1.3,3.2,141.1,0.30,24.1,27.1,"13:11:20",1
"18/07/09","13:30",0.0,32.6,64.4,1011.4,105.9,1.3,2.7,108.9,0.31,25.0,27.0,"13:24:48",1
"18/07/09","13:40",0.0,32.5,59.8,1011.4,114.3,0.8,3.1,15.0,0.29,23.7,27.1,"13:30:02",1
"18/07/09","13:50",0.0,33.5,60.8,1011.6,42.5,0.8,2.0,23.9,0.46,24.9,27.0,"13:48:32",1
"18/07/09","14:00",0.0,33.1,58.4,1011.9,105.3,1.1,3.9,118.0,0.50,23.9,27.3,"13:50:02",1
"18/07/09","14:10",0.0,32.7,61.0,1011.6,118.1,1.5,3.4,160.5,0.24,24.2,27.3,"14:05:12",1
"18/07/09","14:20",0.0,31.8,61.5,1011.6,107.3,1.2,2.8,108.0,0.21,23.5,27.3,"14:10:24",1
"18/07/09","14:30",0.0,31.6,63.5,1011.4,97.4,1.0,2.1,359.5,0.13,23.9,27.4,"14:21:20",1
"18/07/09","14:40",0.0,32.8,62.8,1010.7,100.7,0.7,2.1,129.5,0.23,24.8,27.3,"14:35:44",1
"18/07/09","14:50",0.0,31.8,63.4,1010.7,95.9,0.8,2.2,24.5,0.14,24.0,27.2,"14:44:56",1
"18/07/09","15:00",0.0,31.8,63.1,1010.9,90.6,0.8,2.6,38.9,0.14,23.9,27.1,"14:57:44",1
"18/07/09","15:10",0.0,31.7,62.5,1010.7,98.5,1.0,2.8,110.0,0.09,23.7,27.4,"15:08:32",1
"18/07/09","15:20",0.0,31.4,63.4,1010.4,97.7,1.2,2.6,114.2,0.04,23.7,27.1,"15:14:32",1
"18/07/09","15:30",2.4,28.8,69.8,1010.0,181.8,2.6,5.7,217.4,0.00,22.8,27.2,"15:27:52",1
"18/07/09","15:40",5.4,25.2,79.4,1009.3,224.2,3.2,8.2,245.3,0.00,21.4,27.2,"15:33:36",1
"18/07/09","15:50",0.4,24.5,83.9,1010.4,307.7,1.6,2.9,0.0,0.01,21.6,27.0,"15:40:02",1
"18/07/09","16:00",1.2,24.0,86.2,1010.2,352.6,1.6,4.4,36.6,0.02,21.6,26.7,"15:54:08",1
"18/07/09","16:10",0.0,23.9,87.9,1010.4,320.7,2.0,3.5,332.5,0.03,21.8,26.5,"16:03:12",1
"18/07/09","16:20",0.2,24.0,88.9,1010.7,303.7,1.6,3.5,318.4,0.04,22.1,26.4,"16:10:32",1
"18/07/09","16:30",0.0,24.0,89.0,1010.4,259.2,1.0,2.2,222.2,0.06,22.1,26.4,"16:25:08",1
"18/07/09","16:40",0.0,24.4,90.1,1010.7,286.4,1.0,2.1,327.8,0.07,22.7,26.2,"16:31:24",1
"18/07/09","16:50",0.0,24.5,89.9,1010.7,262.9,0.8,1.7,263.2,0.08,22.8,26.1,"16:40:02",1
"18/07/09","17:00",0.0,25.0,91.4,1010.7,258.4,0.7,1.7,260.4,0.13,23.5,26.0,"16:50:40",1
"18/07/09","17:10",0.0,25.3,91.2,1010.4,291.4,1.0,2.2,240.2,0.12,23.8,26.1,"17:03:28",1
"18/07/09","17:20",0.0,25.4,90.5,1010.9,268.3,0.7,2.1,282.1,0.10,23.8,26.1,"17:14:58",1
"18/07/09","17:30",0.0,25.7,89.4,1010.7,265.7,0.6,1.6,314.3,0.08,23.9,26.0,"17:20:40",1
"18/07/09","17:40",0.0,25.6,89.0,1011.2,280.3,0.6,1.3,301.4,0.07,23.7,26.0,"17:34:02",1
"18/07/09","17:50",0.0,25.5,89.0,1010.7,268.8,0.7,1.6,269.7,0.05,23.6,26.0,"17:49:30",1
"18/07/09","18:00",0.0,25.4,89.3,1010.9,273.6,0.7,1.7,267.8,0.03,23.5,26.1,"17:51:12",1
"18/07/09","18:10",0.0,25.6,89.3,1011.2,270.3,0.5,1.1,243.1,0.03,23.7,25.8,"18:00:02",1
"18/07/09","18:20",0.0,25.6,89.5,1011.4,289.4,0.7,1.2,278.2,0.01,23.8,26.0,"18:10:24",1
"18/07/09","18:30",0.0,25.6,89.4,1011.6,284.6,0.7,1.4,318.9,0.00,23.8,25.9,"18:22:00",1
"18/07/09","18:40",0.0,25.4,89.5,1011.6,278.6,0.8,1.6,256.0,0.00,23.6,25.8,"18:30:40",1
"18/07/09","18:50",0.0,25.3,90.0,1011.6,281.4,0.7,1.3,338.5,0.00,23.6,25.9,"18:40:16",1
"18/07/09","19:00",0.0,25.2,90.2,1011.4,285.3,0.6,1.3,263.2,0.00,23.5,25.8,"18:50:48",1
"18/07/09","19:10",0.0,25.1,90.5,1012.1,292.9,0.7,1.6,329.1,0.00,23.5,25.7,"19:03:04",1
"18/07/09","19:20",0.0,25.0,90.7,1012.1,297.0,1.1,2.5,332.7,0.00,23.4,25.7,"19:12:32",1
"18/07/09","19:30",0.0,24.9,90.9,1011.6,293.8,1.0,2.0,335.2,0.00,23.4,25.4,"19:27:36",1
"18/07/09","19:40",0.0,24.9,91.1,1011.9,287.1,0.8,2.2,329.0,0.00,23.4,25.8,"19:30:48",1
"18/07/09","19:50",0.0,24.8,91.3,1011.9,292.3,0.7,1.1,322.3,0.00,23.3,25.5,"19:40:48",1
"18/07/09","20:00",0.0,24.8,91.5,1012.1,291.8,0.8,2.0,320.9,0.00,23.4,25.6,"19:53:04",1
"18/07/09","20:10",0.0,24.8,91.3,1012.1,277.7,0.8,1.9,315.0,0.00,23.3,25.6,"20:09:44",1
"18/07/09","20:20",0.0,24.7,91.4,1012.3,306.5,1.2,3.2,336.4,0.00,23.2,25.5,"20:15:04",1
"18/07/09","20:30",0.0,24.7,91.6,1012.3,328.4,0.8,1.7,332.0,0.00,23.3,25.3,"20:21:28",1
"18/07/09","20:40",0.0,24.6,92.0,1012.3,298.9,0.8,1.2,313.9,0.00,23.3,25.3,"20:32:32",1
"18/07/09","20:50",0.0,24.5,92.3,1012.6,287.2,0.8,1.2,300.2,0.00,23.2,25.2,"20:43:20",1
"18/07/09","21:00",0.0,24.7,92.8,1012.8,315.7,1.3,2.1,325.6,0.00,23.5,25.3,"20:53:28",1
"18/07/09","21:10",0.0,24.7,92.4,1012.8,314.5,1.0,1.6,323.3,0.00,23.4,25.3,"21:05:52",1
"18/07/09","21:20",0.0,24.5,92.4,1012.8,274.4,0.6,1.3,335.0,0.00,23.2,25.2,"21:19:52",1
"18/07/09","21:30",0.0,24.7,92.9,1012.8,330.1,1.0,1.6,336.3,0.00,23.5,25.1,"21:21:52",1
"18/07/09","21:40",0.0,24.6,92.8,1012.8,306.5,0.7,1.1,322.7,0.00,23.4,25.2,"21:32:00",1
"18/07/09","21:50",0.0,24.4,92.8,1012.8,296.2,0.6,1.3,334.6,0.00,23.2,25.1,"21:49:20",1
"18/07/09","22:00",0.0,24.2,92.9,1013.0,291.9,0.8,1.4,306.1,0.00,23.0,25.0,"21:59:36",1
"18/07/09","22:10",0.0,24.1,93.0,1013.0,283.0,0.8,2.0,318.7,0.00,22.9,25.1,"22:00:16",1
"18/07/09","22:20",0.0,24.1,93.2,1013.0,279.2,0.7,1.3,330.4,0.00,23.0,25.1,"22:18:24",1
"18/07/09","22:30",0.0,24.1,93.5,1013.0,293.2,0.8,1.2,314.7,0.00,23.0,25.0,"22:26:08",1
"18/07/09","22:40",0.0,24.0,93.5,1013.0,293.6,0.6,1.3,322.0,0.00,22.9,25.0,"22:36:16",1
"18/07/09","22:50",0.0,23.9,93.5,1013.3,277.0,0.7,1.1,306.3,0.00,22.8,25.0,"22:45:52",1
"18/07/09","23:00",0.0,23.8,93.6,1013.0,281.3,0.7,1.3,271.1,0.00,22.7,25.0,"22:50:08",1
"18/07/09","23:10",0.0,23.8,93.5,1012.8,275.5,0.8,1.4,319.2,0.00,22.7,24.8,"23:09:36",1
"18/07/09","23:20",0.0,23.7,93.6,1013.0,305.2,1.0,1.7,321.5,0.00,22.6,24.8,"23:14:48",1
"18/07/09","23:30",0.0,23.7,93.8,1012.8,298.9,0.7,1.2,319.6,0.00,22.7,24.9,"23:23:04",1
"18/07/09","23:40",0.0,23.7,94.1,1013.3,306.0,0.6,1.3,320.5,0.00,22.7,24.9,"23:37:04",1
"18/07/09","23:50",0.0,23.6,94.0,1013.0,328.1,1.1,1.7,325.0,0.00,22.6,24.7,"23:47:28",1
"18/07/09","24:00",0.0,23.6,94.2,1013.0,309.7,1.0,1.4,327.0,0.00,22.7,24.8,"23:50:08",1
